Galesburg, IL

2:27 AM CST on February 24, 2017 (GMT -0600)
Galesburg Municipal

Weather History for KGBG - February, 2011

Change the Weather History Date:

Thursday, February 17, 2011

  Actual Average Record
Temperature  
Mean Temperature 55 °F -  
Max Temperature 64 °F 34 °F 71 °F (2017)
Min Temperature 44 °F 19 °F -19 °F (1958)
Degree Days  
Heating Degree Days 10    
Growing Degree Days 5 (Base 50)    
Moisture  
Dew Point 49 °F    
Average Humidity 84    
Maximum Humidity 94    
Minimum Humidity 58    
Precipitation  
Precipitation 0.00 in - - ()
Sea Level Pressure  
Sea Level Pressure 29.65 in    
Wind  
Wind Speed 10 mph (SSW)    
Max Wind Speed 25 mph    
Max Gust Speed 31 mph    
Visibility 9 miles    
Events      
Averages and records for this station are not official NWS values.
T = Trace of Precipitation, MM = Missing Value Source: NWS Daily Summary

Daily Weather History Graph

Daily Weather History Graph

Search for Another Location

Airport or City:

Trip Planner

Search our weather history database for the weather conditions in past years. The results will help you decide how hot, cold, wet, or windy it might be!

Date:

Astronomy

Feb. 17, 2011 Rise Set
Actual Time 6:53 AM CST 5:38 PM CST
Civil Twilight 6:25 AM CST 6:06 PM CST
Nautical Twilight 5:53 AM CST 6:38 PM CST
Astronomical Twilight 5:21 AM CST 7:10 PM CST
Moon 5:16 PM CST (2/17) 6:08 AM CST (2/17)
Length of Visible Light 11h 40m
Length of Day
10h 44m
Waxing Gibbous, 99% of the Moon is Illuminated
Feb 17
Waxing Gibbous
Feb 18
Full
Feb 24
Last Quarter
Mar 4
New
Mar 12
First Quarter

Hourly Weather History & Observations

Time (CST) Temp. Windchill Dew Point Humidity Pressure Visibility Wind Dir Wind Speed Gust Speed Precip Events Conditions
12:05 AM 48.2 °F - 44.6 °F 87% 29.77 in 7.0 mi South 9.2 mph - N/A   Scattered Clouds
12:25 AM 46.4 °F 43.5 °F 44.6 °F 93% 29.76 in 7.0 mi South 5.8 mph - N/A   Clear
12:45 AM 46.4 °F 45.2 °F 44.6 °F 93% 29.76 in 7.0 mi SSE 3.5 mph - N/A   Scattered Clouds
1:05 AM 46.4 °F 42.4 °F 44.6 °F 93% 29.75 in 7.0 mi SSE 8.1 mph - N/A   Mostly Cloudy
1:25 AM 46.4 °F 42.4 °F 44.6 °F 93% 29.75 in 7.0 mi SSE 8.1 mph - N/A   Overcast
1:45 AM 46.4 °F 42.4 °F 44.6 °F 93% 29.74 in 7.0 mi SSE 8.1 mph - N/A   Overcast
2:05 AM 46.4 °F 41.9 °F 44.6 °F 93% 29.74 in 7.0 mi SSE 9.2 mph - N/A   Overcast
2:25 AM 46.4 °F 41.9 °F 44.6 °F 93% 29.73 in 7.0 mi SSE 9.2 mph - N/A   Overcast
2:45 AM 48.2 °F - 44.6 °F 87% 29.72 in 7.0 mi South 8.1 mph - N/A   Overcast
3:05 AM 48.2 °F - 46.4 °F 93% 29.71 in 10.0 mi South 9.2 mph - N/A   Scattered Clouds
3:25 AM 51.8 °F - 48.2 °F 88% 29.71 in 10.0 mi South 10.4 mph - N/A   Mostly Cloudy
3:45 AM 51.8 °F - 48.2 °F 88% 29.71 in 10.0 mi South 9.2 mph - N/A   Overcast
4:05 AM 51.8 °F - 48.2 °F 88% 29.70 in 10.0 mi South 11.5 mph 17.3 mph N/A   Overcast
4:25 AM 50.0 °F - 46.4 °F 87% 29.69 in 10.0 mi South 8.1 mph - N/A   Overcast
4:45 AM 48.2 °F - 46.4 °F 93% 29.69 in 7.0 mi SSE 10.4 mph 16.1 mph N/A   Overcast
5:05 AM 48.2 °F - 46.4 °F 93% 29.68 in 7.0 mi SSE 6.9 mph - N/A   Overcast
5:25 AM 48.2 °F - 46.4 °F 93% 29.68 in 7.0 mi SSE 8.1 mph - N/A   Overcast
5:45 AM 48.2 °F - 46.4 °F 93% 29.68 in 7.0 mi SSE 6.9 mph - N/A   Overcast
6:05 AM 50.0 °F - 46.4 °F 87% 29.67 in 7.0 mi SSE 5.8 mph - N/A   Overcast
6:25 AM 48.2 °F - 46.4 °F 93% 29.68 in 7.0 mi SSE 5.8 mph - N/A   Overcast
6:45 AM 48.2 °F - 46.4 °F 93% 29.66 in 7.0 mi SSE 6.9 mph - N/A   Overcast
7:05 AM 50.0 °F - 46.4 °F 87% 29.66 in 7.0 mi SSE 5.8 mph - N/A   Overcast
7:25 AM 50.0 °F - 46.4 °F 87% 29.65 in 5.0 mi SSE 10.4 mph - N/A   Overcast
7:45 AM 48.2 °F - 46.4 °F 93% 29.65 in 4.0 mi SSE 8.1 mph - N/A   Overcast
8:05 AM 48.2 °F - 46.4 °F 93% 29.65 in 4.0 mi SSE 9.2 mph - N/A   Overcast
8:25 AM 48.2 °F - 46.4 °F 93% 29.65 in 5.0 mi SSE 6.9 mph 16.1 mph N/A   Overcast
8:45 AM 50.0 °F - 48.2 °F 94% 29.64 in 7.0 mi SSE 10.4 mph 16.1 mph N/A   Overcast
9:05 AM 50.0 °F - 48.2 °F 94% 29.63 in 7.0 mi South 12.7 mph 16.1 mph N/A   Overcast
9:25 AM 51.8 °F - 48.2 °F 88% 29.62 in 7.0 mi SSE 12.7 mph 18.4 mph N/A   Overcast
9:45 AM 51.8 °F - 48.2 °F 88% 29.61 in 7.0 mi SSE 12.7 mph - N/A   Overcast
10:05 AM 51.8 °F - 48.2 °F 88% 29.61 in 10.0 mi SSE 12.7 mph 19.6 mph N/A   Overcast
10:25 AM 53.6 °F - 48.2 °F 82% 29.61 in 10.0 mi South 12.7 mph 19.6 mph N/A   Overcast
10:45 AM 53.6 °F - 50.0 °F 88% 29.60 in 10.0 mi South 13.8 mph 20.7 mph N/A   Overcast
11:05 AM 55.4 °F - 50.0 °F 82% 29.59 in 10.0 mi South 13.8 mph 21.9 mph N/A   Overcast
11:25 AM 55.4 °F - 50.0 °F 82% 29.58 in 10.0 mi South 18.4 mph 23.0 mph N/A   Overcast
11:45 AM 55.4 °F - 51.8 °F 88% 29.58 in 10.0 mi South 13.8 mph - N/A   Overcast
12:05 PM 57.2 °F - 51.8 °F 82% 29.56 in 10.0 mi South 12.7 mph 24.2 mph N/A   Overcast
12:25 PM 57.2 °F - 51.8 °F 82% 29.56 in 10.0 mi South 16.1 mph 21.9 mph N/A   Overcast
12:45 PM 57.2 °F - 51.8 °F 82% 29.56 in 10.0 mi South 12.7 mph - N/A   Overcast
1:05 PM 57.2 °F - 53.6 °F 88% 29.56 in 10.0 mi SSW 12.7 mph - N/A   Overcast
1:25 PM 59.0 °F - 53.6 °F 82% 29.55 in 10.0 mi SSW 13.8 mph 19.6 mph N/A   Overcast
1:45 PM 60.8 °F - 53.6 °F 77% 29.54 in 10.0 mi SSW 16.1 mph 23.0 mph N/A   Overcast
2:05 PM 60.8 °F - 53.6 °F 77% 29.53 in 10.0 mi South 16.1 mph 25.3 mph N/A   Overcast
2:25 PM 62.6 °F - 55.4 °F 77% 29.54 in 10.0 mi SSW 16.1 mph 20.7 mph N/A   Overcast
2:45 PM 62.6 °F - 55.4 °F 77% 29.54 in 10.0 mi SSW 17.3 mph 24.2 mph N/A   Overcast
3:05 PM 62.6 °F - 55.4 °F 77% 29.54 in 10.0 mi SSW 20.7 mph 24.2 mph N/A   Mostly Cloudy
3:25 PM 62.6 °F - 55.4 °F 77% 29.54 in 10.0 mi SSW 18.4 mph 23.0 mph N/A   Scattered Clouds
3:45 PM 64.4 °F - 55.4 °F 73% 29.54 in 10.0 mi SSW 15.0 mph - N/A   Clear
4:05 PM 64.4 °F - 55.4 °F 73% 29.54 in 10.0 mi SSW 18.4 mph 23.0 mph N/A   Clear
4:25 PM 64.4 °F - 55.4 °F 73% 29.54 in 10.0 mi SSW 15.0 mph - N/A   Clear
4:45 PM 64.4 °F - 55.4 °F 73% 29.54 in 10.0 mi SSW 12.7 mph - N/A   Clear
5:05 PM 62.6 °F - 55.4 °F 77% 29.55 in 10.0 mi SW 11.5 mph - N/A   Clear
5:25 PM 60.8 °F - 53.6 °F 77% 29.55 in 10.0 mi SSW 10.4 mph - N/A   Clear
5:45 PM 57.2 °F - 53.6 °F 88% 29.56 in 10.0 mi SW 8.1 mph - N/A   Clear
6:05 PM 55.4 °F - 51.8 °F 88% 29.57 in 10.0 mi SW 8.1 mph - N/A   Clear
6:25 PM 57.2 °F - 51.8 °F 82% 29.59 in 10.0 mi SW 6.9 mph - N/A   Clear
6:45 PM 55.4 °F - 51.8 °F 88% 29.60 in 10.0 mi SW 5.8 mph - N/A   Clear
7:05 PM 55.4 °F - 51.8 °F 88% 29.61 in 10.0 mi SW 6.9 mph - N/A   Clear
7:25 PM 53.6 °F - 50.0 °F 88% 29.62 in 10.0 mi SW 8.1 mph - N/A   Clear
7:45 PM 55.4 °F - 51.8 °F 88% 29.62 in 10.0 mi WSW 10.4 mph - N/A   Clear
8:05 PM 55.4 °F - 51.8 °F 88% 29.63 in 10.0 mi SW 9.2 mph - N/A   Clear
8:25 PM 57.2 °F - 51.8 °F 82% 29.64 in 10.0 mi SW 10.4 mph - N/A   Clear
8:45 PM 57.2 °F - 51.8 °F 82% 29.66 in 10.0 mi WSW 13.8 mph 17.3 mph N/A   Clear
9:05 PM 57.2 °F - 51.8 °F 82% 29.70 in 10.0 mi West 13.8 mph 17.3 mph N/A   Clear
9:25 PM 57.2 °F - 50.0 °F 77% 29.73 in 10.0 mi WNW 25.3 mph 29.9 mph N/A   Scattered Clouds
9:45 PM 55.4 °F - 44.6 °F 67% 29.76 in 10.0 mi NW 17.3 mph 31.1 mph N/A   Mostly Cloudy
10:05 PM 53.6 °F - 39.2 °F 58% 29.79 in 10.0 mi NW 16.1 mph 24.2 mph N/A   Mostly Cloudy
10:25 PM 50.0 °F - 39.2 °F 66% 29.81 in 10.0 mi NW 11.5 mph - N/A   Scattered Clouds
10:45 PM 48.2 °F - 37.4 °F 66% 29.82 in 10.0 mi NW 11.5 mph 16.1 mph N/A   Clear
11:05 PM 48.2 °F - 37.4 °F 66% 29.84 in 10.0 mi NW 11.5 mph - N/A   Clear
11:25 PM 46.4 °F 41.1 °F 37.4 °F 71% 29.85 in 10.0 mi NW 11.5 mph - N/A   Clear
11:45 PM 44.6 °F 40.2 °F 33.8 °F 66% 29.85 in 10.0 mi NW 8.1 mph - N/A   Clear